TimeCDT,TemperatureF,Dew PointF,Humidity,Sea Level PressureIn,VisibilityMPH,Wind Direction,Wind SpeedMPH,Gust SpeedMPH,PrecipitationIn,Events,Conditions,WindDirDegrees,DateUTC
12:53 AM,46.0,37.9,73,30.21,10.0,South,5.8,-,N/A,,Clear,180,2011-10-31 05:53:00
1:53 AM,46.0,37.9,73,30.20,10.0,South,6.9,-,N/A,,Clear,180,2011-10-31 06:53:00
2:53 AM,44.1,37.9,79,30.19,10.0,South,5.8,-,N/A,,Clear,190,2011-10-31 07:53:00
3:53 AM,45.0,37.9,76,30.19,10.0,SW,9.2,-,N/A,,Clear,220,2011-10-31 08:53:00
4:53 AM,45.0,37.0,74,30.17,10.0,SW,8.1,-,N/A,,Clear,230,2011-10-31 09:53:00
5:53 AM,43.0,37.0,80,30.17,10.0,SW,9.2,-,N/A,,Clear,230,2011-10-31 10:53:00
7:53 AM,42.1,37.0,82,30.17,10.0,SSW,6.9,-,N/A,,Clear,200,2011-10-31 12:53:00
8:53 AM,46.9,39.0,74,30.18,10.0,SSW,6.9,-,N/A,,Clear,210,2011-10-31 13:53:00
9:53 AM,53.1,41.0,64,30.18,10.0,SSW,12.7,-,N/A,,Clear,210,2011-10-31 14:53:00
10:53 AM,57.0,42.1,57,30.17,10.0,SW,15.0,-,N/A,,Clear,220,2011-10-31 15:53:00
11:53 AM,61.0,42.1,50,30.16,10.0,SSW,15.0,-,N/A,,Clear,210,2011-10-31 16:53:00
12:53 PM,64.0,41.0,43,30.14,10.0,SSW,18.4,-,N/A,,Clear,210,2011-10-31 17:53:00
1:53 PM,66.9,42.1,40,30.10,10.0,South,19.6,-,N/A,,Clear,190,2011-10-31 18:53:00
2:53 PM,68.0,41.0,37,30.07,10.0,SSW,15.0,-,N/A,,Clear,200,2011-10-31 19:53:00
3:53 PM,69.1,42.1,38,30.04,10.0,South,18.4,-,N/A,,Clear,180,2011-10-31 20:53:00
4:53 PM,69.1,43.0,39,30.03,10.0,South,19.6,-,N/A,,Clear,180,2011-10-31 21:53:00
5:53 PM,66.9,45.0,45,30.02,10.0,South,19.6,-,N/A,,Clear,170,2011-10-31 22:53:00
6:53 PM,61.0,46.0,58,30.02,10.0,South,11.5,-,N/A,,Clear,170,2011-10-31 23:53:00
7:53 PM,60.1,46.9,62,30.02,10.0,SSE,15.0,-,N/A,,Clear,160,2011-11-01 00:53:00
9:53 PM,60.1,46.0,60,30.00,10.0,South,18.4,-,N/A,,Clear,170,2011-11-01 02:53:00
10:53 PM,60.1,45.0,57,29.99,10.0,South,19.6,-,N/A,,Clear,180,2011-11-01 03:53:00